• In Deutschland
  • Länderverzeichnis
  • Für 7 Tage
  • Wassertemperatur
  • Satellitenkarten
  • Wetterkarte
  • Widgets
  • user-avatar
    Anmelden

    Stündliche Wetter Shusha

    Heute, 25 April, Dienstag

    Zeit Temperatur Niederschläge Wind Luftdruck Luftfeuchtigkeit
    00:00 +5°C° 0 mm 1 m/S 658 mmHg 82%
    01:00 +5°C° 0 mm 1 m/S 658 mmHg 82%
    02:00 +4°C° 0 mm 1 m/S 658 mmHg 83%
    03:00 +4°C° 0 mm 1 m/S 657 mmHg 85%
    04:00 +4°C° 0 mm 1 m/S 658 mmHg 82%
    05:00 +5°C° 0 mm 1 m/S 658 mmHg 80%
    06:00 +5°C° 0 mm 1 m/S 659 mmHg 77%
    07:00 +6°C° 0 mm 2 m/S 660 mmHg 66%
    08:00 +8°C° 0 mm 2 m/S 660 mmHg 56%
    09:00 +10°C° 0 mm 3 m/S 661 mmHg 46%
    10:00 +10°C° 0 mm 3 m/S 661 mmHg 44%
    11:00 +11°C° 0 mm 3 m/S 661 mmHg 43%
    12:00 +12°C° 0 mm 3 m/S 662 mmHg 41%
    13:00 +12°C° 0 mm 3 m/S 662 mmHg 42%
    14:00 +12°C° 0 mm 3 m/S 662 mmHg 43%
    15:00 +12°C° 0 mm 3 m/S 662 mmHg 44%
    16:00 +10°C° 0 mm 3 m/S 662 mmHg 51%
    17:00 +9°C° 0 mm 3 m/S 662 mmHg 57%
    18:00 +8°C° 0 mm 3 m/S 662 mmHg 64%
    19:00 +6°C° 0 mm 2 m/S 663 mmHg 70%
    20:00 +5°C° 0 mm 2 m/S 663 mmHg 76%
    21:00 +4°C° 0 mm 2 m/S 664 mmHg 82%
    22:00 +3°C° 0 mm 2 m/S 664 mmHg 83%
    23:00 +4°C° 0 mm 1 m/S 664 mmHg 85%

    Morgen, 26 April, Mittwoch

    Zeit Temperatur Niederschläge Wind Luftdruck Luftfeuchtigkeit
    00:00 +3°C° 0 mm 1 m/S 665 mmHg 87%
    01:00 +3°C° 0 mm 1 m/S 665 mmHg 86%
    02:00 +3°C° 0 mm 1 m/S 665 mmHg 85%
    03:00 +3°C° 0 mm 1 m/S 665 mmHg 85%
    04:00 +3°C° 0,1 mm 1 m/S 666 mmHg 83%
    05:00 +3°C° 0,1 mm 1 m/S 666 mmHg 81%
    06:00 +3°C° 0,1 mm 2 m/S 667 mmHg 80%
    07:00 +4°C° 0,1 mm 2 m/S 667 mmHg 74%
    08:00 +4°C° 0,1 mm 2 m/S 667 mmHg 68%
    09:00 +4°C° 0,1 mm 3 m/S 668 mmHg 62%
    10:00 +5°C° 0 mm 3 m/S 668 mmHg 57%
    11:00 +8°C° 0 mm 3 m/S 668 mmHg 52%
    12:00 +9°C° 0 mm 3 m/S 668 mmHg 46%
    13:00 +8°C° 0 mm 4 m/S 667 mmHg 47%
    14:00 +8°C° 0 mm 4 m/S 667 mmHg 48%
    15:00 +10°C° 0 mm 4 m/S 667 mmHg 48%
    16:00 +9°C° 0 mm 3 m/S 667 mmHg 53%
    17:00 +8°C° 0 mm 3 m/S 667 mmHg 58%
    18:00 +7°C° 0 mm 3 m/S 667 mmHg 63%
    19:00 +5°C° 0 mm 2 m/S 667 mmHg 70%
    20:00 +3°C° 0 mm 2 m/S 666 mmHg 78%
    21:00 +2°C° 0 mm 1 m/S 666 mmHg 85%
    22:00 +2°C° 0 mm 1 m/S 666 mmHg 85%
    23:00 +2°C° 0 mm 1 m/S 666 mmHg 86%

    übermorgen, 27 April, Donnerstag

    Zeit Temperatur Niederschläge Wind Luftdruck Luftfeuchtigkeit
    00:00 +1°C° 0 mm 1 m/S 666 mmHg 86%
    01:00 +1°C° 0 mm 1 m/S 666 mmHg 85%
    02:00 +1°C° 0 mm 1 m/S 666 mmHg 84%
    03:00 +1°C° 0 mm 1 m/S 666 mmHg 83%
    04:00 +2°C° 0 mm 1 m/S 666 mmHg 78%
    05:00 +2°C° 0 mm 1 m/S 666 mmHg 74%
    06:00 +3°C° 0 mm 1 m/S 667 mmHg 70%
    07:00 +5°C° 0 mm 1 m/S 667 mmHg 64%
    08:00 +7°C° 0 mm 1 m/S 667 mmHg 57%
    09:00 +8°C° 0 mm 2 m/S 668 mmHg 50%
    10:00 +9°C° 0 mm 2 m/S 668 mmHg 48%
    11:00 +10°C° 0 mm 3 m/S 667 mmHg 46%
    12:00 +11°C° 0 mm 3 m/S 667 mmHg 44%
    13:00 +11°C° 0 mm 3 m/S 667 mmHg 45%
    14:00 +12°C° 0 mm 3 m/S 666 mmHg 46%
    15:00 +12°C° 0 mm 3 m/S 666 mmHg 47%
    16:00 +11°C° 0 mm 3 m/S 666 mmHg 53%
    17:00 +10°C° 0 mm 2 m/S 666 mmHg 58%
    18:00 +8°C° 0 mm 2 m/S 666 mmHg 63%
    19:00 +6°C° 0 mm 2 m/S 666 mmHg 70%
    20:00 +5°C° 0 mm 1 m/S 665 mmHg 77%
    21:00 +3°C° 0 mm 1 m/S 665 mmHg 84%
    22:00 +3°C° 0 mm 1 m/S 665 mmHg 84%
    23:00 +3°C° 0 mm 1 m/S 665 mmHg 83%

    28 April, Freitag

    Zeit Temperatur Niederschläge Wind Luftdruck Luftfeuchtigkeit
    00:00 +3°C° 0 mm 1 m/S 665 mmHg 83%
    01:00 +3°C° 0 mm 1 m/S 665 mmHg 84%
    02:00 +2°C° 0 mm 1 m/S 664 mmHg 84%
    03:00 +2°C° 0 mm 1 m/S 664 mmHg 85%
    04:00 +3°C° 0 mm 1 m/S 664 mmHg 82%
    05:00 +4°C° 0 mm 1 m/S 665 mmHg 79%
    06:00 +5°C° 0 mm 1 m/S 665 mmHg 77%
    07:00 +7°C° 0 mm 1 m/S 665 mmHg 70%
    08:00 +9°C° 0 mm 1 m/S 666 mmHg 64%
    09:00 +10°C° 0 mm 2 m/S 666 mmHg 57%
    10:00 +12°C° 0 mm 2 m/S 666 mmHg 54%
    11:00 +13°C° 0 mm 2 m/S 666 mmHg 52%
    12:00 +15°C° 0 mm 2 m/S 665 mmHg 49%
    13:00 +15°C° 0 mm 2 m/S 665 mmHg 49%
    14:00 +15°C° 0 mm 2 m/S 664 mmHg 50%
    15:00 +15°C° 0 mm 2 m/S 664 mmHg 51%
    16:00 +14°C° 0 mm 2 m/S 664 mmHg 57%
    17:00 +13°C° 0 mm 2 m/S 663 mmHg 62%
    18:00 +12°C° 0 mm 1 m/S 663 mmHg 68%
    19:00 +10°C° 0 mm 1 m/S 663 mmHg 74%
    20:00 +8°C° 0 mm 1 m/S 663 mmHg 81%
    21:00 +6°C° 0 mm 1 m/S 662 mmHg 87%
    22:00 +6°C° 0 mm 1 m/S 662 mmHg 87%
    23:00 +6°C° 0 mm 1 m/S 662 mmHg 87%

    29 April, Samstag

    Zeit Temperatur Niederschläge Wind Luftdruck Luftfeuchtigkeit
    00:00 +6°C° 0 mm 1 m/S 662 mmHg 87%
    01:00 +6°C° 0 mm 1 m/S 661 mmHg 87%
    02:00 +5°C° 0 mm 1 m/S 661 mmHg 88%
    03:00 +5°C° 0 mm 1 m/S 660 mmHg 88%
    04:00 +6°C° 0 mm 1 m/S 660 mmHg 86%
    05:00 +7°C° 0 mm 1 m/S 661 mmHg 83%
    06:00 +8°C° 0 mm 1 m/S 661 mmHg 80%
    07:00 +10°C° 0 mm 1 m/S 662 mmHg 69%
    08:00 +12°C° 0 mm 1 m/S 662 mmHg 59%
    09:00 +14°C° 0 mm 2 m/S 663 mmHg 48%
    10:00 +16°C° 0 mm 2 m/S 663 mmHg 46%
    11:00 +17°C° 0 mm 2 m/S 662 mmHg 43%
    12:00 +18°C° 0 mm 3 m/S 662 mmHg 41%
    13:00 +18°C° 0,2 mm 2 m/S 662 mmHg 42%
    14:00 +18°C° 0,2 mm 2 m/S 662 mmHg 43%
    15:00 +18°C° 0,2 mm 2 m/S 661 mmHg 44%
    16:00 +17°C° 0,2 mm 2 m/S 661 mmHg 50%
    17:00 +16°C° 0,2 mm 1 m/S 661 mmHg 56%
    18:00 +14°C° 0,2 mm 1 m/S 660 mmHg 61%
    19:00 +12°C° 0,1 mm 1 m/S 660 mmHg 66%
    20:00 +11°C° 0,1 mm 1 m/S 660 mmHg 71%
    21:00 +9°C° 0,1 mm 1 m/S 660 mmHg 76%
    22:00 +9°C° 0 mm 1 m/S 660 mmHg 77%
    23:00 +8°C° 0 mm 1 m/S 659 mmHg 77%

    30 April, Sonntag

    Zeit Temperatur Niederschläge Wind Luftdruck Luftfeuchtigkeit
    00:00 +8°C° 0 mm 1 m/S 659 mmHg 78%
    01:00 +8°C° 0 mm 1 m/S 659 mmHg 80%
    02:00 +7°C° 0 mm 1 m/S 658 mmHg 81%
    03:00 +6°C° 0 mm 1 m/S 658 mmHg 83%
    04:00 +7°C° 0 mm 1 m/S 659 mmHg 80%
    05:00 +8°C° 0 mm 1 m/S 659 mmHg 77%
    06:00 +10°C° 0 mm 1 m/S 660 mmHg 74%
    07:00 +12°C° 0 mm 1 m/S 660 mmHg 64%
    08:00 +15°C° 0 mm 1 m/S 661 mmHg 54%
    09:00 +17°C° 0 mm 2 m/S 662 mmHg 45%
    10:00 +18°C° 0 mm 2 m/S 661 mmHg 42%
    11:00 +20°C° 0 mm 2 m/S 661 mmHg 39%
    12:00 +21°C° 0 mm 2 m/S 661 mmHg 36%
    13:00 +21°C° 0 mm 2 m/S 661 mmHg 36%
    14:00 +21°C° 0 mm 2 m/S 661 mmHg 36%
    15:00 +21°C° 0 mm 2 m/S 660 mmHg 37%
    16:00 +20°C° 0,1 mm 2 m/S 660 mmHg 44%
    17:00 +19°C° 0,1 mm 1 m/S 660 mmHg 51%
    18:00 +18°C° 0,1 mm 1 m/S 660 mmHg 58%
    19:00 +15°C° 0,1 mm 1 m/S 659 mmHg 65%
    20:00 +13°C° 0,1 mm 1 m/S 659 mmHg 72%
    21:00 +10°C° 0,1 mm 1 m/S 659 mmHg 79%
    22:00 +10°C° 0 mm 1 m/S 658 mmHg 80%
    23:00 +10°C° 0 mm 1 m/S 658 mmHg 81%
    Mehr zeigen